El Reno, OK

8:30 PM CDT on July 24, 2017 (GMT -0500)
El Reno

Weather History for KRQO - January, 2014

Change the Weather History Date:

Wednesday, January 29, 2014

  Actual Average (KPWA) Record (KPWA)
Temperature  
Mean Temperature 29 °F -  
Max Temperature 46 °F 44 °F 73 °F (2011)
Min Temperature 12 °F 25 °F 4 °F (1966)
Degree Days  
Heating Degree Days 36    
Moisture  
Dew Point 8 °F    
Average Humidity 46    
Maximum Humidity 85    
Minimum Humidity 15    
Precipitation  
Precipitation 0.00 in - - ()
Sea Level Pressure  
Sea Level Pressure 30.18 in    
Wind  
Wind Speed 13 mph (South)    
Max Wind Speed 29 mph    
Max Gust Speed 33 mph    
Visibility 10 miles    
Events      
Averages and records for this station are not official NWS values.
T = Trace of Precipitation, MM = Missing Value Source: NWS Daily Summary

Daily Weather History Graph

Daily Weather History Graph

Search for Another Location

Airport or City:

Trip Planner

Search our weather history database for the weather conditions in past years. The results will help you decide how hot, cold, wet, or windy it might be!

Date:

Astronomy

Jan. 29, 2014 Rise Set
Actual Time 7:33 AM CST 5:56 PM CST
Civil Twilight 7:06 AM CST 6:23 PM CST
Nautical Twilight 6:36 AM CST 6:54 PM CST
Astronomical Twilight 6:06 AM CST 7:24 PM CST
Moon 6:11 AM CST (1/29) 4:57 PM CST (1/29)
Length of Visible Light 11h 16m
Length of Day
10h 23m
Waning Crescent, 2% of the Moon is Illuminated
Jan 29
Waning Crescent
Jan 30
New
Feb 6
First Quarter
Feb 14
Full
Feb 22
Last Quarter

Hourly Weather History & Observations

Time (CST) Temp. Windchill Dew Point Humidity Pressure Visibility Wind Dir Wind Speed Gust Speed Precip Events Conditions
12:15 AM 17.6 °F 6.4 °F 6.8 °F 63% 30.34 in 10.0 mi South 9.2 mph - N/A   Clear
12:35 AM 17.6 °F 7.3 °F 6.8 °F 63% 30.34 in 10.0 mi South 8.1 mph - N/A   Clear
12:55 AM 17.6 °F 6.4 °F 5.0 °F 58% 30.33 in 10.0 mi SSW 9.2 mph - N/A   Clear
1:15 AM 17.6 °F 6.4 °F 6.8 °F 63% 30.33 in 10.0 mi SSW 9.2 mph - N/A   Clear
1:35 AM 17.6 °F 5.7 °F 5.0 °F 58% 30.33 in 10.0 mi SSW 10.4 mph - N/A   Clear
1:55 AM 17.6 °F 5.7 °F 6.8 °F 63% 30.32 in 10.0 mi SW 10.4 mph - N/A   Clear
2:15 AM 17.6 °F 7.3 °F 6.8 °F 63% 30.32 in 10.0 mi SW 8.1 mph - N/A   Clear
2:35 AM 17.6 °F 6.4 °F 6.8 °F 63% 30.32 in 10.0 mi WSW 9.2 mph - N/A   Clear
2:55 AM 15.8 °F 4.2 °F 6.8 °F 68% 30.31 in 10.0 mi WSW 9.2 mph - N/A   Clear
3:15 AM 17.6 °F 6.4 °F 8.6 °F 68% 30.31 in 10.0 mi WSW 9.2 mph - N/A   Clear
3:35 AM 17.6 °F 7.3 °F 6.8 °F 63% 30.30 in 10.0 mi SW 8.1 mph - N/A   Clear
3:55 AM 14.0 °F 2.0 °F 6.8 °F 73% 30.29 in 10.0 mi SSW 9.2 mph - N/A   Clear
4:15 AM 15.8 °F 5.1 °F 6.8 °F 68% 30.29 in 10.0 mi SSW 8.1 mph - N/A   Clear
4:35 AM 15.8 °F 5.1 °F 8.6 °F 73% 30.28 in 10.0 mi South 8.1 mph - N/A   Clear
4:55 AM 15.8 °F 3.4 °F 8.6 °F 73% 30.28 in 10.0 mi South 10.4 mph - N/A   Clear
5:15 AM 14.0 °F 2.0 °F 8.6 °F 79% 30.27 in 10.0 mi South 9.2 mph - N/A   Clear
5:35 AM 14.0 °F 2.0 °F 8.6 °F 79% 30.27 in 10.0 mi South 9.2 mph - N/A   Clear
5:55 AM 14.0 °F 1.2 °F 8.6 °F 79% 30.27 in 10.0 mi South 10.4 mph - N/A   Clear
6:15 AM 14.0 °F 1.2 °F 8.6 °F 79% 30.27 in 10.0 mi South 10.4 mph - N/A   Clear
6:35 AM 14.0 °F 2.9 °F 8.6 °F 79% 30.27 in 10.0 mi South 8.1 mph - N/A   Clear
6:55 AM 14.0 °F 3.9 °F 8.6 °F 79% 30.28 in 10.0 mi South 6.9 mph - N/A   Clear
7:15 AM 12.2 °F 1.7 °F 8.6 °F 85% 30.28 in 10.0 mi South 6.9 mph - N/A   Clear
7:35 AM 12.2 °F 1.7 °F 8.6 °F 85% 30.28 in 10.0 mi South 6.9 mph - N/A   Clear
7:55 AM 14.0 °F 2.9 °F 8.6 °F 79% 30.27 in 10.0 mi SSE 8.1 mph - N/A   Clear
8:15 AM 17.6 °F 9.3 °F 10.4 °F 73% 30.27 in 10.0 mi SSE 5.8 mph - N/A   Clear
8:35 AM 19.4 °F 8.6 °F 12.2 °F 74% 30.27 in 10.0 mi SSE 9.2 mph - N/A   Clear
8:55 AM 23.0 °F 13.1 °F 12.2 °F 63% 30.26 in 10.0 mi South 9.2 mph - N/A   Clear
9:15 AM 24.8 °F 15.3 °F 14.0 °F 64% 30.27 in 10.0 mi South 9.2 mph - N/A   Clear
9:35 AM 28.4 °F 19.7 °F 14.0 °F 55% 30.27 in 10.0 mi SSW 9.2 mph - N/A   Clear
9:55 AM 32.0 °F 23.0 °F 14.0 °F 48% 30.28 in 10.0 mi SSW 11.5 mph - N/A   Clear
10:15 AM 33.8 °F 25.3 °F 10.4 °F 38% 30.28 in 10.0 mi SW 11.5 mph - N/A   Clear
10:35 AM 33.8 °F 25.3 °F 10.4 °F 38% 30.27 in 10.0 mi SSW 11.5 mph - N/A   Clear
10:55 AM 35.6 °F 27.1 °F 10.4 °F 35% 30.27 in 10.0 mi SSW 12.7 mph - N/A   Clear
11:15 AM 37.4 °F 28.9 °F 10.4 °F 33% 30.26 in 10.0 mi South 13.8 mph - N/A   Clear
11:35 AM 41.0 °F 32.5 °F 8.6 °F 26% 30.25 in 10.0 mi SSW 17.3 mph - N/A   Clear
11:55 AM 41.0 °F 32.8 °F 6.8 °F 24% 30.24 in 10.0 mi SSW 16.1 mph 27.6 mph N/A   Clear
12:15 PM 42.8 °F 34.0 °F 5.0 °F 21% 30.22 in 10.0 mi SSW 20.7 mph 28.8 mph N/A   Clear
12:35 PM 44.6 °F 34.9 °F 1.4 °F 17% 30.21 in 10.0 mi SSW 28.8 mph - N/A   Clear
12:55 PM 44.6 °F 36.1 °F 1.4 °F 17% 30.19 in 10.0 mi South 21.9 mph 32.2 mph N/A   Clear
1:15 PM 44.6 °F 36.4 °F -0.4 °F 15% 30.18 in 10.0 mi SSW 20.7 mph 33.4 mph N/A   Clear
1:35 PM 46.4 °F 37.9 °F 1.4 °F 16% 30.16 in 10.0 mi South 25.3 mph 28.8 mph N/A   Clear
1:55 PM 46.4 °F 38.1 °F 3.2 °F 17% 30.15 in 10.0 mi South 24.2 mph 32.2 mph N/A   Clear
2:15 PM 46.4 °F 38.3 °F 5.0 °F 18% 30.15 in 10.0 mi South 23.0 mph 29.9 mph N/A   Clear
2:35 PM 44.6 °F 35.3 °F 5.0 °F 20% 30.13 in 10.0 mi SSW 26.5 mph 31.1 mph N/A   Clear
2:55 PM 46.4 °F 37.5 °F 5.0 °F 18% 30.12 in 10.0 mi SSW 27.6 mph 32.2 mph N/A   Clear
3:15 PM 44.6 °F 35.1 °F 3.2 °F 18% 30.11 in 10.0 mi South 27.6 mph 31.1 mph N/A   Clear
3:35 PM 44.6 °F 35.9 °F 5.0 °F 20% 30.09 in 10.0 mi South 23.0 mph 29.9 mph N/A   Clear
3:55 PM 44.6 °F 35.7 °F 5.0 °F 20% 30.08 in 10.0 mi South 24.2 mph 32.2 mph N/A   Clear
4:15 PM 44.6 °F 35.9 °F 5.0 °F 20% 30.08 in 10.0 mi South 23.0 mph - N/A   Clear
4:35 PM 44.6 °F 35.7 °F 5.0 °F 20% 30.07 in 10.0 mi South 24.2 mph 31.1 mph N/A   Clear
4:55 PM 42.8 °F 33.8 °F 5.0 °F 21% 30.06 in 10.0 mi South 21.9 mph 29.9 mph N/A   Clear
5:15 PM 42.8 °F 33.3 °F 5.0 °F 21% 30.06 in 10.0 mi South 24.2 mph 29.9 mph N/A   Clear
5:35 PM 41.0 °F 31.6 °F 5.0 °F 23% 30.06 in 10.0 mi South 20.7 mph 28.8 mph N/A   Clear
5:55 PM 41.0 °F 32.2 °F 5.0 °F 23% 30.07 in 10.0 mi South 18.4 mph 26.5 mph N/A   Clear
6:15 PM 37.4 °F 28.2 °F 5.0 °F 26% 30.07 in 10.0 mi South 16.1 mph - N/A   Clear
6:35 PM 35.6 °F 26.6 °F 5.0 °F 28% 30.06 in 10.0 mi South 13.8 mph - N/A   Clear
6:55 PM 35.6 °F 25.9 °F 6.8 °F 30% 30.05 in 10.0 mi South 16.1 mph - N/A   Clear
7:15 PM 35.6 °F 25.5 °F 8.6 °F 33% 30.04 in 10.0 mi South 17.3 mph - N/A   Clear
7:35 PM 35.6 °F 25.2 °F 8.6 °F 33% 30.04 in 10.0 mi South 18.4 mph - N/A   Clear
7:55 PM 32.0 °F 21.6 °F 8.6 °F 38% 30.04 in 10.0 mi South 15.0 mph - N/A   Clear
8:15 PM 32.0 °F 21.6 °F 8.6 °F 38% 30.03 in 10.0 mi South 15.0 mph - N/A   Clear
8:35 PM 33.8 °F 22.8 °F 10.4 °F 38% 30.02 in 10.0 mi South 18.4 mph - N/A   Clear
8:55 PM 33.8 °F 23.2 °F 10.4 °F 38% 30.01 in 10.0 mi South 17.3 mph - N/A   Clear
9:15 PM 33.8 °F 22.5 °F 10.4 °F 38% 30.01 in 10.0 mi South 19.6 mph - N/A   Clear
9:35 PM 32.0 °F 20.5 °F 10.4 °F 41% 30.01 in 10.0 mi South 18.4 mph - N/A   Clear
9:55 PM 32.0 °F 20.1 °F 12.2 °F 44% 30.00 in 10.0 mi South 19.6 mph - N/A   Clear
10:15 PM 32.0 °F 20.8 °F 12.2 °F 44% 30.00 in 10.0 mi South 17.3 mph - N/A   Clear
10:35 PM 30.2 °F 18.9 °F 12.2 °F 47% 29.99 in 10.0 mi SSE 16.1 mph - N/A   Clear
10:55 PM 30.2 °F 17.8 °F 12.2 °F 47% 29.98 in 10.0 mi South 19.6 mph 24.2 mph N/A   Clear
11:15 PM 32.0 °F 19.8 °F 12.2 °F 44% 29.97 in 10.0 mi South 20.7 mph - N/A   Clear
11:35 PM 32.0 °F 20.1 °F 12.2 °F 44% 29.95 in 10.0 mi South 19.6 mph - N/A   Clear
11:55 PM 32.0 °F 19.5 °F 12.2 °F 44% 29.95 in 10.0 mi South 21.9 mph 29.9 mph N/A   Clear